Probability
0 0 0 0 0 0 0 0 0 0 0 1 0 0 0 1 1 1 1 2 6 8 8 7 7 10 16 21 21 18 16 13 10 7 7 8 8 7 6 6 6 5 3 3
0 0 0 0 0 0 0 0 0 0 0 1 1 0 1 1 1 0 1 4 8 11 11 11 11 13 20 26 25 21 18 16 13 10 10 10 9 9 8 8 7 6 4 3
0 0 0 0 0 0 0 0 0 0 0 1 2 1 1 1 1 0 1 3 8 12 14 15 14 16 24 30 29 23 21 20 18 15 14 13 13 13 11 11 11 8 6 6
0 0 0 0 0 0 0 0 1 1 1 0 1 0 0 1 1 1 1 2 4 9 14 15 14 15 22 28 27 25 26 26 22 18 16 15 15 14 14 15 14 12 10 10
0 0 0 0 0 0 0 0 1 1 1 0 0 0 0 1 2 2 2 2 2 6 13 16 15 16 19 22 24 27 30 31 26 21 16 14 14 13 14 15 15 13 12 10
0 0 0 0 0 0 0 0 0 0 0 0 0 0 1 1 3 3 3 2 2 5 13 18 19 21 21 20 22 28 32 32 30 24 17 14 13 12 13 14 13 12 11 11
0 0 0 0 0 0 0 0 0 0 0 0 0 1 2 2 2 3 3 3 2 6 14 20 24 26 25 22 23 29 34 34 31 27 20 16 15 14 13 12 11 10 11 11
0 0 0 0 0 0 0 0 0 0 0 0 0 1 3 3 2 3 3 3 4 8 15 22 26 28 26 24 25 31 37 36 32 29 24 21 20 18 14 12 10 9 10 11
0 0 0 0 0 0 0 0 0 0 0 0 0 1 3 3 3 4 4 5 7 10 16 22 26 26 26 25 28 34 39 41 36 30 27 26 26 23 18 15 11 10 11 12
0 0 0 0 0 0 0 0 0 0 0 0 0 1 2 4 5 5 5 6 9 13 17 21 24 25 26 27 31 37 43 46 42 35 32 33 33 29 24 20 17 16 17 19
0 0 0 0 0 0 0 0 0 0 0 0 0 1 3 5 7 7 6 7 11 15 19 23 25 26 27 30 34 41 47 50 47 43 43 44 42 36 31 28 28 28 28 28
0 0 0 0 0 0 0 0 0 0 0 0 0 2 4 6 8 10 11 11 14 19 24 28 31 31 31 35 39 44 49 51 51 50 51 51 47 43 39 38 40 41 39 37
0 0 0 0 0 0 0 0 0 0 0 0 1 3 6 8 10 12 15 17 20 25 30 35 39 40 40 42 46 48 48 50 52 52 52 50 47 46 45 45 48 50 47 43
0 0 0 0 0 0 0 0 0 0 0 1 3 5 8 11 14 15 18 22 26 31 35 39 44 49 48 48 49 49 48 49 52 53 51 48 47 45 45 48 51 53 50 45
0 0 0 0 0 0 0 0 0 0 1 3 6 8 10 14 17 18 22 29 34 37 39 43 50 54 54 52 52 50 48 48 52 55 53 51 49 46 46 49 52 53 50 47
0 0 0 0 0 0 0 0 0 0 1 4 7 10 13 15 17 20 26 33 40 42 44 49 56 59 60 58 56 53 51 51 53 56 56 55 53 49 49 53 54 54 53 52
1 2 1 0 0 0 0 0 1 1 2 4 7 11 13 13 15 19 25 31 36 39 43 50 56 61 64 63 61 57 54 52 53 55 56 56 55 52 51 54 56 56 56 54
3 5 4 1 0 0 0 0 2 3 5 8 11 13 13 12 12 15 20 25 29 34 39 44 50 55 60 62 60 57 52 49 50 52 54 56 56 54 53 55 57 57 55 54
3 5 4 2 1 0 0 1 3 5 9 13 17 18 16 13 12 13 17 20 25 31 35 40 44 49 54 55 55 53 50 47 47 50 53 55 57 56 55 57 59 57 55 53
1 3 3 2 1 0 2 4 5 8 13 17 21 23 21 18 17 17 18 21 26 32 36 40 44 47 50 52 51 51 51 49 48 49 52 55 56 56 56 57 59 57 53 51
1 1 1 1 0 1 3 5 7 13 20 22 23 25 25 25 24 24 23 25 30 34 38 43 47 49 51 53 53 53 52 51 49 48 50 53 54 53 52 54 54 53 51 49
2 2 3 2 3 5 7 8 12 20 25 26 25 26 27 27 27 27 27 28 32 34 38 44 48 50 52 53 54 54 53 52 51 48 48 51 52 49 48 49 49 48 47 47
7 9 11 11 11 12 14 16 18 21 24 25 25 24 24 25 25 26 27 28 30 32 36 42 47 49 51 50 50 51 51 51 50 47 47 48 48 46 45 45 44 41 40 40
11 14 18 20 18 17 18 19 19 18 19 22 21 19 19 21 24 25 26 27 29 32 37 41 45 46 47 46 46 47 47 47 47 45 44 45 44 43 42 39 35 32 30 31
10 12 18 22 21 19 19 18 15 15 16 16 17 15 15 19 24 27 27 28 31 34 38 41 43 43 42 43 44 44 44 44 44 43 41 40 39 37 35 29 24 21 19 20
8 10 14 20 22 21 20 17 14 13 14 14 15 14 15 18 23 27 29 29 32 35 39 42 42 40 39 40 42 41 41 42 43 42 39 37 35 34 30 23 17 13 12 12
Wind_Speed
14 11 9 10 13 13 10 7 6 4 6 5 6 7 8 10 10 10 12 12 12 12 12 12 11 12 11 10 8 7 6 5 4 3 3 2 2 2 2 2 3 3 2 2
13 13 13 14 13 12 10 7 6 4 6 4 5 5 7 10 11 11 11 13 13 13 13 12 11 12 12 11 9 8 7 6 5 3 2 2 2 2 3 2 3 3 3 3
16 13 15 14 12 12 10 9 6 4 4 4 3 4 7 7 9 11 12 13 13 14 15 14 12 12 12 12 11 9 8 7 6 4 3 2 2 1 2 3 3 3 3 3
15 15 15 13 11 10 8 8 6 5 7 4 5 4 6 9 10 11 11 12 13 14 15 15 14 12 12 12 12 9 9 8 7 5 4 4 3 2 2 2 3 3 3 3
14 15 14 12 10 9 8 8 8 7 8 6 7 6 6 10 10 10 11 11 13 14 15 16 15 13 13 13 12 10 9 8 7 6 5 4 2 2 2 2 3 3 3 4
17 15 14 13 11 10 9 9 8 7 6 8 10 8 5 6 9 11 11 11 12 14 15 15 15 13 12 13 12 12 10 9 8 6 5 4 3 3 2 2 3 3 3 3
17 16 15 12 12 11 11 9 6 7 6 8 10 8 5 7 8 9 10 10 10 13 14 14 15 14 12 13 13 12 12 10 9 8 6 5 4 4 3 3 3 3 3 3
14 14 15 13 12 11 11 11 9 8 7 8 9 6 3 6 6 7 8 10 11 11 12 14 15 14 13 13 12 12 12 11 10 8 7 5 5 4 3 3 3 2 2 2
11 12 13 12 12 12 13 12 12 10 10 9 6 4 4 4 7 8 8 10 10 10 11 13 15 15 14 13 12 12 12 11 10 9 7 6 6 4 3 3 3 2 2 2
13 12 12 12 12 14 15 12 9 9 7 8 6 6 3 4 6 7 7 9 10 10 10 12 13 14 13 13 12 11 11 10 9 9 8 7 6 5 4 3 3 2 2 1
13 12 12 12 13 13 13 14 11 8 7 9 7 4 2 4 5 6 7 8 9 9 10 9 9 11 12 12 12 11 11 10 9 8 7 5 6 6 5 4 3 2 2 2
9 10 11 12 12 12 14 15 13 9 7 8 7 5 3 4 5 5 6 5 7 8 9 10 10 10 10 11 11 10 11 11 9 8 7 6 6 5 5 4 4 3 3 3
6 8 10 12 11 12 13 13 13 12 9 9 9 5 4 1 2 4 5 6 6 6 7 8 9 9 8 8 8 8 9 10 10 9 8 7 6 6 5 4 4 4 4 3
5 9 12 13 9 8 11 13 13 12 9 10 8 6 4 2 2 3 5 5 6 7 6 6 7 8 7 7 6 6 7 7 8 8 8 7 7 6 5 4 4 4 4 4
7 11 13 15 15 14 14 13 14 14 13 11 7 7 4 2 2 3 5 6 7 6 5 5 5 6 7 7 6 6 5 5 5 6 6 6 6 6 5 5 4 4 4 5
7 9 11 15 16 15 16 15 14 15 12 12 9 6 1 1 1 3 4 5 5 5 5 4 4 6 7 7 6 5 5 5 5 5 6 5 5 5 5 5 4 4 4 3
7 7 10 13 14 15 17 16 15 13 11 10 9 5 3 1 1 3 4 4 4 4 4 3 3 4 6 6 6 6 5 4 5 5 4 4 4 4 4 5 5 5 4 4
8 7 7 11 13 17 11 9 9 9 7 6 3 3 3 3 2 2 3 4 4 4 4 3 3 3 4 6 6 6 5 5 4 4 4 4 4 4 4 3 3 3 3 3
9 8 8 9 13 15 11 8 8 7 5 2 1 2 3 2 2 2 4 4 3 4 4 3 3 3 3 4 5 5 5 4 4 4 4 4 4 4 4 4 3 3 2 3
11 9 9 10 13 13 5 5 6 5 4 2 2 3 2 1 2 2 5 5 5 5 4 3 3 2 2 3 3 4 4 4 3 3 3 3 4 4 4 3 3 2 2 3
12 12 13 14 14 10 5 6 7 7 0 4 4 4 2 3 3 3 4 4 4 3 4 4 3 2 2 2 3 2 2 2 2 2 3 3 3 3 4 3 3 3 3 3
10 11 12 12 14 7 6 4 3 3 5 5 4 4 4 4 4 3 3 4 3 3 3 3 3 2 2 3 3 2 1 1 1 2 2 2 3 3 3 3 3 3 3 3
7 5 4 4 3 1 5 5 4 4 4 3 3 2 3 2 2 1 2 3 2 1 2 2 2 2 3 3 2 2 1 1 1 2 2 2 3 2 3 3 3 3 3 3
6 4 4 3 2 1 2 3 3 4 3 3 3 2 1 1 1 0 1 1 2 1 1 1 2 1 2 2 2 2 2 1 1 2 2 2 3 3 3 2 2 2 2 2
7 5 4 5 5 5 3 2 3 4 4 3 3 3 1 1 1 0 0 0 1 1 1 1 1 1 1 2 2 1 1 1 1 1 2 2 3 3 2 1 1 0 0 1
7 6 6 5 5 6 5 4 3 3 4 4 3 3 2 2 1 1 0 0 1 1 0 0 0 1 1 1 1 1 1 2 1 1 2 2 3 3 3 3 2 5 3 2
Wind_Direction
228 230 233 227 233 239 236 221 226 208 191 193 171 161 177 174 174 169 168 167 169 167 165 159 160 154 148 144 142 143 146 141 146 154 165 169 162 160 156 154 149 153 164 157
231 231 240 239 246 252 253 248 245 220 191 201 184 180 190 188 180 176 175 170 170 167 164 161 164 161 156 151 150 151 155 153 159 159 165 167 166 165 160 147 139 159 167 176
232 234 235 241 246 251 254 254 245 251 243 242 243 217 196 202 187 179 179 172 171 170 167 165 170 169 163 159 162 165 160 159 167 167 165 174 159 173 148 145 155 173 177 184
237 244 244 239 246 256 260 269 266 255 256 243 236 241 209 199 194 185 181 175 173 171 167 170 174 173 168 163 164 159 156 159 165 174 174 181 173 176 168 159 160 169 178 189
242 239 247 246 250 254 262 272 276 269 264 260 242 242 211 197 190 183 182 182 176 172 169 171 174 172 170 166 165 161 158 160 164 177 180 186 187 184 174 163 162 172 186 194
251 247 247 247 249 249 255 262 269 271 275 264 261 252 213 203 185 179 180 181 179 172 169 168 170 168 170 167 165 164 160 164 169 178 181 183 189 196 197 195 178 187 188 195
245 245 242 239 245 239 239 243 251 248 248 252 259 256 196 183 180 177 171 173 175 170 168 165 167 167 169 170 168 164 160 166 172 179 185 181 188 202 201 214 211 203 197 189
236 239 237 231 235 244 239 240 239 246 246 250 243 242 200 161 155 156 162 166 169 172 169 166 165 165 170 172 167 163 163 170 176 181 184 182 184 201 200 207 226 211 205 177
245 244 239 230 227 238 246 244 250 257 257 265 262 237 191 152 154 157 163 161 166 174 170 166 165 167 171 172 168 165 163 169 176 180 178 185 188 200 204 192 211 220 203 188
258 263 248 226 223 225 243 253 256 253 265 268 250 249 221 184 170 161 166 164 164 170 166 165 165 167 168 170 166 163 162 168 174 178 182 184 186 191 198 205 200 199 205 193
254 260 258 241 224 230 231 244 251 259 260 265 264 260 208 192 192 172 165 163 161 163 158 154 158 161 162 165 167 165 163 165 172 178 177 176 175 184 196 200 194 195 201 189
260 262 262 254 243 237 242 241 243 247 250 260 266 267 263 187 172 157 144 145 153 153 154 153 152 150 157 163 166 166 167 169 174 175 173 177 176 184 194 192 193 195 198 197
282 265 256 248 243 231 242 248 249 254 253 251 251 234 237 133 112 117 120 124 127 130 140 141 144 147 153 158 159 162 169 172 175 174 176 178 183 189 195 197 198 193 191 194
269 261 262 259 261 259 249 254 254 254 254 254 250 228 223 122 107 111 114 131 137 134 127 133 138 144 148 148 148 160 169 169 172 173 178 180 186 190 195 201 198 189 185 189
255 256 262 270 273 269 261 257 257 254 259 262 244 227 211 166 119 92 110 121 120 120 127 123 132 134 140 145 151 160 163 165 173 174 181 184 184 187 190 194 191 184 190 197
241 265 269 265 266 269 269 262 258 256 252 257 257 256 162 81 113 99 96 101 117 119 116 122 130 131 139 145 153 156 162 167 171 177 183 177 178 188 192 188 184 181 186 193
256 261 268 264 263 264 254 253 252 250 248 245 236 219 156 153 51 87 94 104 112 113 109 102 103 128 143 147 150 156 163 168 169 170 171 169 176 185 189 192 183 184 190 193
255 268 262 262 263 254 250 257 260 257 266 266 236 171 146 136 107 91 86 94 103 109 107 116 137 143 148 155 161 160 166 166 165 167 173 172 175 179 177 181 182 189 189 190
233 240 254 257 253 253 251 251 254 255 260 299 257 175 142 129 135 96 73 71 84 109 113 122 130 140 147 160 158 149 154 163 168 174 179 174 173 179 182 179 183 188 187 194
217 220 241 251 258 255 250 285 290 265 223 53 62 87 99 159 218 113 71 63 68 74 89 101 105 100 120 141 147 149 159 167 179 182 182 174 171 177 183 180 179 180 190 201
210 213 227 242 251 261 292 298 286 252 182 69 67 71 76 30 33 55 50 50 56 69 77 80 85 76 76 104 124 143 156 178 182 176 169 168 172 182 182 175 175 181 192 195
233 226 226 237 245 248 349 327 321 37 58 60 59 59 54 60 60 54 44 41 39 70 78 89 86 83 75 81 99 116 108 100 142 149 157 168 171 199 184 166 180 186 189 191
253 263 257 252 251 59 20 23 23 45 50 46 39 53 78 85 73 49 41 36 12 38 57 87 101 95 92 96 113 121 93 84 120 155 165 178 180 178 172 175 182 187 193 199
272 295 275 283 227 255 355 346 356 11 16 12 357 344 107 147 193 2 41 21 347 344 41 77 114 114 106 104 104 107 103 94 123 148 165 172 164 165 154 165 189 195 203 209
292 299 277 265 279 292 289 333 349 350 349 339 324 318 295 222 250 306 358 353 322 305 27 52 81 103 108 115 118 115 107 108 137 163 189 198 192 176 154 133 43 172 31 212
278 277 267 266 289 298 307 314 312 316 312 309 311 320 319 314 265 251 257 346 313 269 193 150 170 186 182 148 123 102 106 120 140 204 209 216 211 187 168 144 95 48 55 67